Tracking 25620 objects as of 18-May-2022
HD Live streaming from Space Station
objects crossing your sky now

COSMOS 2251 DEB

Track COSMOS 2251 DEB now!
10-day predictions


NORAD ID: 40795
Int'l Code: 1993-036BVY
Perigee: 597.2 km
Apogee: 779.8 km
Inclination: 74.0 °
Period: 98.4 minutes
Semi major axis: 7059 km
RCS: Unknown
Launch date: June 16, 1993
Source: Commonwealth of Independent States (former USSR) (CIS)
Launch site: PLESETSK MISSILE AND SPACE COMPLEX (PKMTR)

Note: This is SATELLITE DEBRIS
aabbcc
Your satellite tracking list
Your tracking list is empty




NASA's NSSDC Master Catalog

Two Line Element Set (TLE):
1 40795U 93036BVY 22136.23549519  .00006276  00000-0  10729-2 0  9990
2 40795  73.9702 226.7983 0129354 353.3822  35.8825 14.63671912433799
Source of the keplerian elements: AFSPC